Flag for Germany Weather past 2 weeks in Osterholz-Scharmbeck, Lower Saxony, Germany

Now
51 °F

Rain. Low clouds.


Feels Like: 47 °F
Forecast: 40 / 48 °F
Wind: 12 mph from West

Location: Bremen

Current Time: Dec 23, 2014 at 1:55:55 AM

Latest Report: Dec 23, 2014 at 1:00 AM


Visibility: 4 mi

Pressure: 29.85 "Hg

Humidity: 92%

Dew point: 49 °F

Location of Osterholz-ScharmbeckLocation

Historic Weather in Osterholz-Scharmbeck — Graph

°F

Osterholz-Scharmbeck temperature yesterday

Maximum temperature yesterday: 53 °F (at 3:00 PM)
Minimum temperature yesterday: 47 °F (at 12:00 AM)
Average temperature yesterday: 51 °F

Past Weeks' High & Low Weather Summary

 TemperatureHumidityPressure
High54 °F (Dec 18, 8:00 PM)98% (Dec 13, 11:00 PM)30.34 "Hg (Dec 13, 11:00 PM)
Low33 °F (Dec 13, 9:00 PM)69% (Dec 10, 5:00 AM)29.23 "Hg (Dec 12, 12:00 PM)
Average42 °F89%29.84 "Hg
* Reported Midnight between Dec 7 and Dec 8 — Midnight between Dec 22 and Dec 23, Osterholz-Scharmbeck, Weather by CustomWeather, © 2014

Note: Actual official high and low records may vary slightly from our data, if they occured in-between our weather recording intervals... More about our weather records

Advertising

Osterholz-Scharmbeck weather history for previous 24 hours

 ConditionsComfort  
Time TempWeatherWind HumidityBarometerVisibility
12:00 AM
Dec 23
52 °FRain. Overcast.13 mph91%29.84 "Hg6 mi
11:00 PM
Dec 22
52 °FLight rain. Overcast.12 mph92%29.84 "Hg8 mi
10:00 PM52 °FLight rain. Low clouds.10 mph93%29.84 "Hg5 mi
9:00 PM51 °FLight rain. Low clouds.10 mph95%29.84 "Hg3 mi
8:00 PM51 °FRain. Low clouds.9 mph96%29.84 "Hg3 mi
7:00 PM51 °FRain. Low clouds.10 mph94%29.84 "Hg4 mi
6:00 PM52 °FRain. Low clouds.10 mph93%29.84 "Hg4 mi
5:00 PM52 °FRain. Low clouds.10 mph92%29.83 "Hg4 mi
3:00 PM53 °FRain. Low clouds.12 mph91%29.80 "Hg4 mi
2:00 PM52 °FRain. Low clouds.13 mph94%29.80 "Hg2 mi
1:00 PM52 °FRain. Low clouds.12 mph95%29.81 "Hg3 mi
12:00 PM51 °FDrizzle. Low clouds.13 mph94%29.81 "Hg4 mi
11:00 AM51 °FDrizzle. Low clouds.14 mph93%29.80 "Hg3 mi
9:00 AM50 °FDrizzle. Low clouds.13 mph94%29.82 "Hg3 mi
8:00 AM50 °FDrizzle. Low clouds.13 mph94%29.83 "Hg4 mi
7:00 AM50 °FRain. Low clouds.13 mph94%29.85 "Hg4 mi
6:00 AM50 °FRain. Low clouds.12 mph94%29.85 "Hg2 mi
5:00 AM50 °FDrizzle. Low clouds.13 mph94%29.86 "Hg2 mi
3:00 AM49 °FDrizzle. Overcast.14 mph91%29.89 "Hg4 mi
2:00 AM49 °FLight rain. Overcast.13 mph87%29.91 "Hg12 mi
1:00 AM49 °FOvercast.14 mph82%29.93 "Hg19 mi
Weather by CustomWeather, © 2014

See weather overviewHow to use our weather pages